Flag for Canada Weather past 2 weeks in Greater Sudbury, Ontario, Canada

Now
63 °F

Scattered showers. Scattered clouds.


Feels Like: 63 °F
Forecast: 50 / 72 °F
Wind: 8 mph from Southwest

Location: Sudbury

Current Time: Jul 31, 2014 at 9:58:20 PM

Latest Report: Jul 31, 2014 at 9:00 PM


Visibility: 15 mi

Pressure: 29.93 "Hg

Humidity: 77%

Dew point: 55 °F

Location of Greater SudburyLocation

Historic Weather in Greater Sudbury — Graph

°F

Greater Sudbury temperature yesterday

Maximum temperature yesterday: 64 °F (at 5:00 PM)
Minimum temperature yesterday: 52 °F (at 12:00 AM)
Average temperature yesterday: 56 °F

Past Weeks' High & Low Weather Summary

 TemperatureHumidityPressure
High81 °F (Jul 22, 12:00 PM)100% (Jul 17, 12:00 AM)30.21 "Hg (Jul 17, 12:00 AM)
Low46 °F (Jul 24, 3:00 AM)41% (Jul 17, 4:00 PM)29.66 "Hg (Jul 27, 4:45 AM)
Average62 °F78%29.97 "Hg
* Reported Jul 16 8:00 PM — Jul 31 8:00 PM, Greater Sudbury, Weather by CustomWeather, © 2014

Note: Actual official high and low records may vary slightly from our data, if they occured in-between our weather recording intervals... More about our weather records

Advertising

Greater Sudbury weather history for previous 24 hours

 ConditionsComfort  
Time TempWeatherWind HumidityBarometerVisibility
8:00 PM
Jul 31
64 °FScattered showers. Broken clouds.13 mph73%29.93 "Hg15 mi
7:00 PM64 °FBroken clouds.13 mph73%29.93 "Hg15 mi
6:00 PM63 °FSprinkles. Cloudy.6 mph77%29.93 "Hg15 mi
5:00 PM63 °FSprinkles. Cloudy.9 mph83%29.92 "Hg15 mi
4:00 PM61 °FSprinkles. Mostly cloudy.10 mph88%29.92 "Hg15 mi
3:00 PM61 °FScattered showers. Mostly cloudy.17 mph83%29.92 "Hg15 mi
2:55 PM61 °FLight rain. Broken clouds.12 mph88%29.92 "Hg15 mi
2:00 PM59 °FLight rain. Mostly cloudy.15 mph94%29.92 "Hg15 mi
1:00 PM57 °FLight rain. Fog.12 mph94%29.92 "Hg6 mi
12:00 PM57 °FLight rain. Fog.9 mph88%29.93 "Hg6 mi
11:00 AM57 °FLight rain. Low clouds.9 mph88%29.93 "Hg15 mi
10:00 AM57 °FLight rain. Low clouds.7 mph88%29.92 "Hg20 mi
9:00 AM55 °FMostly cloudy.7 mph94%29.93 "Hg20 mi
8:00 AM55 °FMostly cloudy.6 mph94%29.93 "Hg20 mi
7:00 AM52 °FPartly cloudy.5 mph100%29.93 "Hg20 mi
6:00 AM52 °FPartly cloudy.6 mph100%29.92 "Hg20 mi
5:46 AM52 °FPassing clouds.6 mph100%29.92 "Hg20 mi
5:00 AM52 °FPassing clouds.3 mph94%29.91 "Hg15 mi
4:00 AM54 °FOvercast.5 mph100%29.92 "Hg15 mi
3:00 AM54 °FOvercast.5 mph100%29.93 "Hg15 mi
2:00 AM54 °FOvercast.5 mph100%29.93 "Hg15 mi
1:00 AM54 °FSprinkles. Mostly cloudy.6 mph100%29.93 "Hg15 mi
12:00 AM54 °FSprinkles. Overcast.5 mph100%29.93 "Hg15 mi
11:00 PM
Jul 30
54 °FOvercast.3 mph94%29.94 "Hg15 mi
10:00 PM55 °FMostly cloudy.5 mph88%29.95 "Hg15 mi
9:00 PM55 °FMostly cloudy.5 mph88%29.94 "Hg15 mi
Weather by CustomWeather, © 2014

See weather overviewHow to use our weather pages